[[{"header":{"parameterUnit":"m.s-1","parameterCategory":1,"la1":30.2991,"la2":30.254,"lo1":-89.0895,"lo2":-89.0444,"dy":0.0017,"dx":0.0017,"nx":28,"ny":28,"refTime":"2023-08-28T09:00:00:Z","depth":0,"parameterNumber":2,"parameterNumberName":"U-component_of_WINDS"},"data":[0,0,0,0,0,0,0,0,0,0,0,0,0,0,0,0,0,0,0,0,0,0,0,0,0,0,0,0,0,0,0,0,0,0,0,0,0,0,0,0,0,0,0,0,0,0,0,0,0,0,0,0,0,0,0,0,0,0,-0.2477,-0.2478,0,-0.2538,-0.2539,-0.2539,-0.2577,-0.2577,-0.2577,-0.2578,-0.2636,-0.2637,-0.2639,0,0,0,0,0,0,0,0,0,0,0,0,0,-0.2389,-0.239,-0.2477,-0.2478,-0.2479,-0.2538,-0.2539,-0.254,-0.2577,-0.2577,-0.2577,-0.2578,-0.2636,-0.2637,-0.2639,0,0,0,0,0,0,0,0,0,0,0,0,0,-0.2436,-0.2391,-0.2477,-0.2504,-0.2508,-0.2538,-0.2539,-0.254,-0.2577,-0.2577,-0.2578,-0.2578,-0.2635,-0.2637,-0.2639,-0.2645,0,0,-0.2645,-0.2646,0,0,0,0,0,0,0,0,-0.2433,-0.2439,-0.25,-0.2503,-0.2506,-0.255,-0.2529,-0.2575,-0.2577,-0.255,-0.2578,-0.2578,-0.2607,-0.2611,-0.2622,-0.2648,-0.2651,-0.2645,-0.2647,-0.2648,-0.2648,0,0,0,0,0,0,0,-0.243,-0.2437,-0.2501,-0.25,-0.2504,-0.2512,-0.252,-0.2538,-0.2576,-0.2553,-0.2556,-0.2563,-0.2609,-0.262,-0.2624,-0.2651,-0.2645,-0.2647,-0.2648,-0.2649,-0.2685,-0.2684,0,0,0,0,0,0,-0.2423,-0.2434,-0.2499,-0.2503,-0.247,-0.2514,-0.2522,-0.2536,-0.2576,-0.2583,-0.2562,-0.2564,-0.2616,-0.2621,-0.2626,-0.2635,-0.2648,-0.2649,-0.2651,-0.2685,-0.2685,-0.2684,0,0,0,0,0,0,-0.2421,-0.2428,-0.2497,-0.2469,-0.2479,-0.2515,-0.253,-0.2537,-0.2548,-0.2583,-0.259,-0.2567,-0.2617,-0.2623,-0.264,-0.2638,-0.265,-0.2652,-0.2685,-0.2685,-0.2684,-0.2654,0,0,0,0,0,0,-0.2418,-0.2428,-0.2431,-0.2469,-0.248,-0.2511,-0.253,-0.2538,-0.2552,-0.2555,-0.2589,-0.2595,-0.2617,-0.2637,-0.2642,-0.2641,-0.2654,-0.2686,-0.2685,-0.2685,-0.2656,-0.2653,-0.2651,0,0,0,0,0,-0.2415,-0.242,-0.2431,-0.2439,-0.2486,-0.2511,-0.2517,-0.2544,-0.2552,-0.2555,-0.2577,-0.2594,-0.2637,-0.2639,-0.2645,-0.2644,-0.2686,-0.2685,-0.2685,-0.2657,-0.2653,-0.2651,0,0,0,0,0,0,-0.2379,-0.2425,-0.2438,-0.2456,-0.2479,-0.2517,-0.2523,-0.2539,-0.256,-0.2562,-0.2593,-0.26,-0.2614,-0.2631,-0.2631,-0.2652,-0.2663,-0.2664,-0.264,-0.2637,-0.2635,-0.263,-0.2656,0,0,0,0,0,-0.2374,-0.2392,-0.243,-0.2442,-0.2453,-0.2486,-0.2498,-0.2516,-0.2541,-0.2551,-0.2575,-0.2598,-0.2616,-0.2628,-0.2647,-0.2658,-0.2666,-0.2661,-0.2658,-0.2656,-0.2656,-0.2662,-0.266,-0.2682,-0.2682,-0.2682,0,0,-0.2362,-0.2389,-0.2398,-0.2435,-0.2456,-0.2473,-0.2494,-0.2511,-0.2523,-0.2553,-0.2571,-0.259,-0.2617,-0.2631,-0.2638,-0.2645,-0.2651,-0.2655,-0.2653,-0.2654,-0.2661,-0.2659,-0.2657,-0.2682,-0.2682,-0.2682,0,0,-0.2348,-0.2371,-0.2383,-0.2404,-0.2435,-0.2456,-0.2459,-0.2495,-0.2508,-0.2527,-0.255,-0.2564,-0.2596,-0.2614,-0.2628,-0.2621,-0.2637,-0.2626,-0.2613,-0.2618,-0.2617,-0.2615,-0.2612,-0.261,-0.2626,-0.2626,-0.2626,0,-0.2329,-0.2357,-0.2387,-0.2403,-0.2418,-0.2447,-0.2459,-0.2476,-0.2511,-0.252,-0.2528,-0.2568,-0.2588,-0.2607,-0.2605,-0.2616,-0.2619,-0.2622,-0.2615,-0.2614,-0.2613,-0.261,-0.2609,-0.2625,-0.2625,-0.2625,-0.2625,0,-0.2331,-0.235,-0.2356,-0.239,-0.2406,-0.2419,-0.245,-0.2462,-0.2479,-0.2499,-0.2517,-0.2543,-0.2567,-0.2573,-0.259,-0.2594,-0.2597,-0.2609,-0.2622,-0.2609,-0.2606,-0.2606,-0.2622,-0.2623,-0.2623,-0.2624,0,0,-0.2297,-0.2348,-0.235,-0.2366,-0.2402,-0.2416,-0.243,-0.2456,-0.2465,-0.2488,-0.25,-0.2526,-0.2537,-0.2552,-0.2571,-0.2576,-0.2568,-0.2588,-0.2589,-0.2582,-0.2573,-0.2563,-0.2561,-0.2579,-0.2579,-0.2579,-0.257,0,-0.2289,-0.2317,-0.2345,-0.2363,-0.2379,-0.2407,-0.242,-0.2442,-0.2462,-0.2478,-0.2498,-0.2516,-0.253,-0.254,-0.2546,-0.2568,-0.2566,-0.2569,-0.2589,-0.2589,-0.258,-0.256,-0.255,-0.2541,-0.257,-0.257,-0.257,0,-0.2283,-0.2306,-0.2326,-0.236,-0.2369,-0.2379,-0.2404,-0.242,-0.2445,-0.2459,-0.2476,-0.2496,-0.251,-0.2521,-0.2541,-0.2542,-0.2552,-0.2564,-0.2564,-0.2566,-0.2578,-0.2561,-0.2539,-0.2537,-0.2569,-0.2569,-0.2569,0,-0.2255,-0.2291,-0.2308,-0.232,-0.2361,-0.2367,-0.2384,-0.2411,-0.2424,-0.2445,-0.2454,-0.2476,-0.2488,-0.2504,-0.2529,-0.2535,-0.2545,-0.2559,-0.2556,-0.2555,-0.2556,-0.2556,-0.2534,-0.2564,-0.2564,-0.2564,-0.2564,0,-0.2242,-0.2253,-0.2295,-0.2305,-0.2318,-0.2349,-0.236,-0.2379,-0.2402,-0.2415,-0.244,-0.2452,-0.2484,-0.2499,-0.2518,-0.2531,-0.2537,-0.2547,-0.2552,-0.2544,-0.2543,-0.255,-0.2551,-0.2564,-0.2564,-0.2564,-0.2564,0,-0.2213,-0.2242,-0.2262,-0.2299,-0.2308,-0.2316,-0.2347,-0.2357,-0.2378,-0.2394,-0.2399,-0.2431,-0.245,-0.2477,-0.2503,-0.2516,-0.2526,-0.2534,-0.2517,-0.252,-0.2515,-0.2515,-0.2497,-0.2495,-0.2527,-0.2526,-0.2526,0,-0.2203,-0.2212,-0.225,-0.2262,-0.2278,-0.2296,-0.231,-0.234,-0.2353,-0.2383,-0.2389,-0.241,-0.2428,-0.2456,-0.2481,-0.2501,-0.251,-0.2502,-0.2513,-0.2505,-0.2508,-0.2507,-0.2508,-0.2499,-0.2498,-0.2498,-0.2498,0,-0.2181,-0.2195,-0.2215,-0.2239,-0.2256,-0.2276,-0.2297,-0.2305,-0.2339,-0.2352,-0.2372,-0.2386,-0.2414,-0.2434,-0.2457,-0.2473,-0.249,-0.2494,-0.2495,-0.2486,-0.2476,-0.2481,-0.2509,-0.2494,-0.2495,-0.2495,-0.2495,-0.2495,-0.2161,-0.217,-0.2198,-0.2219,-0.2239,-0.2258,-0.2269,-0.2292,-0.2309,-0.2335,-0.2351,-0.237,-0.2395,-0.2428,-0.2443,-0.2458,-0.2465,-0.2465,-0.2465,-0.2465,-0.2461,-0.2475,-0.2462,-0.2462,-0.2462,-0.2462,-0.2463,0,-0.214,-0.2159,-0.2178,-0.2208,-0.2224,-0.2241,-0.2265,-0.2277,-0.2294,-0.2316,-0.2334,-0.2356,-0.2376,-0.2402,-0.2423,-0.2429,-0.2437,-0.2433,-0.2433,-0.2436,-0.2454,-0.2452,-0.2426,-0.2426,-0.2426,-0.2426,-0.2426,-0.2426,-0.2131,-0.2147,-0.2164,-0.2189,-0.2209,-0.2229,-0.2241,-0.2258,-0.2276,-0.2301,-0.2317,-0.2335,-0.2358,-0.2381,-0.2399,-0.2406,-0.2412,-0.2405,-0.2414,-0.2431,-0.2435,-0.2438,-0.2435,-0.2407,-0.2407,-0.2395,-0.2395,-0.2394]},{"header":{"parameterUnit":"m.s-1","parameterCategory":1,"la1":30.2991,"la2":30.254,"lo1":-89.0895,"lo2":-89.0444,"dy":0.0017,"dx":0.0017,"nx":28,"ny":28,"refTime":"2023-08-28T09:00:00:Z","depth":0,"parameterNumber":3,"parameterNumberName":"V-component_of_WINDS"},"data":[0,0,0,0,0,0,0,0,0,0,0,0,0,0,0,0,0,0,0,0,0,0,0,0,0,0,0,0,0,0,0,0,0,0,0,0,0,0,0,0,0,0,0,0,0,0,0,0,0,0,0,0,0,0,0,0,0,0,2.093,2.0931,0,2.1025,2.1026,2.1027,2.0998,2.0996,2.0994,2.0993,2.1088,2.1092,2.1096,0,0,0,0,0,0,0,0,0,0,0,0,0,2.072,2.0724,2.0929,2.0931,2.0932,2.1025,2.1026,2.1028,2.0999,2.0996,2.0994,2.0992,2.1086,2.1092,2.1097,0,0,0,0,0,0,0,0,0,0,0,0,0,2.0813,2.0726,2.0929,2.0929,2.093,2.1025,2.1026,2.1028,2.0999,2.0996,2.0993,2.0991,2.1085,2.1091,2.1098,2.1198,0,0,2.1118,2.1121,0,0,0,0,0,0,0,0,2.0808,2.0821,2.0928,2.0929,2.093,2.0997,2.0987,2.1085,2.1,2.0973,2.0993,2.0989,2.106,2.1068,2.1093,2.1202,2.1206,2.1118,2.1122,2.1125,2.1127,0,0,0,0,0,0,0,2.0801,2.0816,2.0967,2.0929,2.0931,2.0923,2.0933,2.1006,2.1032,2.0975,2.0973,2.0985,2.106,2.1086,2.1095,2.1208,2.1118,2.1124,2.1128,2.1131,2.1406,2.1409,0,0,0,0,0,0,2.0794,2.0811,2.0964,2.097,2.0861,2.0929,2.0941,2.0978,2.1031,2.1036,2.0987,2.0983,2.1077,2.1087,2.1098,2.122,2.1125,2.1131,2.1135,2.1403,2.1407,2.141,0,0,0,0,0,0,2.079,2.0808,2.096,2.089,2.0909,2.0936,2.0979,2.0982,2.1008,2.104,2.1045,2.101,2.1075,2.1089,2.1174,2.1223,2.1134,2.114,2.1399,2.1404,2.1408,2.1464,0,0,0,0,0,0,2.0784,2.0807,2.0846,2.0891,2.0913,2.1035,2.0982,2.0986,2.102,2.1016,2.1063,2.1067,2.1073,2.1164,2.118,2.123,2.1145,2.1394,2.1401,2.1407,2.1458,2.147,2.1481,0,0,0,0,0,2.0777,2.0857,2.0848,2.0866,2.0962,2.1038,2.105,2.1056,2.1024,2.1063,2.1084,2.1066,2.1215,2.1173,2.1191,2.1243,2.1391,2.1399,2.1406,2.1452,2.1467,2.148,0,0,0,0,0,0,2.0815,2.0862,2.0853,2.095,2.0991,2.1033,2.1082,2.1072,2.1121,2.1115,2.1119,2.113,2.1218,2.1239,2.1192,2.1344,2.1298,2.131,2.1327,2.1342,2.1353,2.1346,2.1151,0,0,0,0,0,2.0834,2.0893,2.0931,2.1013,2.1034,2.1055,2.1088,2.109,2.1131,2.1147,2.1174,2.1215,2.1271,2.1307,2.136,2.146,2.1471,2.1506,2.1517,2.1526,2.1536,2.1592,2.1608,2.1435,2.1435,2.1435,0,0,2.0876,2.0909,2.0945,2.1022,2.1053,2.1113,2.1069,2.1134,2.1179,2.1157,2.124,2.1261,2.1306,2.14,2.1442,2.142,2.1586,2.1536,2.1543,2.1548,2.1601,2.1618,2.1632,2.144,2.1439,2.1438,0,0,2.0981,2.1013,2.1085,2.1118,2.1166,2.118,2.1197,2.1242,2.1255,2.1339,2.1324,2.1376,2.1472,2.1506,2.1535,2.1655,2.1641,2.1672,2.1732,2.1787,2.18,2.1812,2.1856,2.1871,2.1682,2.1682,2.1682,0,2.1026,2.1117,2.1123,2.119,2.1224,2.1209,2.1282,2.1313,2.1376,2.14,2.1374,2.1495,2.1524,2.1626,2.1656,2.168,2.17,2.1667,2.1798,2.181,2.1821,2.1863,2.1879,2.1686,2.1685,2.1685,2.1685,0,2.117,2.1233,2.1286,2.1349,2.1388,2.1458,2.1474,2.1514,2.1512,2.1529,2.1614,2.1649,2.1709,2.1733,2.1731,2.1835,2.182,2.1796,2.175,2.1841,2.1881,2.1897,2.1691,2.169,2.1688,2.1688,0,0,2.1302,2.1368,2.1387,2.1416,2.1469,2.1518,2.1587,2.1647,2.1682,2.1726,2.1784,2.1866,2.1845,2.1879,2.188,2.1928,2.2022,2.1899,2.19,2.1921,2.214,2.2158,2.2176,2.2013,2.2016,2.2018,2.2136,0,2.1413,2.1536,2.1543,2.1654,2.1713,2.17,2.176,2.1799,2.1816,2.1868,2.1887,2.1946,2.1913,2.1933,2.198,2.2001,2.2066,2.1992,2.2067,2.207,2.2057,2.2197,2.2216,2.2325,2.2152,2.2154,2.2156,0,2.1558,2.1609,2.1726,2.1772,2.1797,2.1851,2.1907,2.1957,2.2001,2.2011,2.2049,2.2045,2.2115,2.2067,2.2165,2.2115,2.2146,2.2161,2.2166,2.2173,2.2119,2.2208,2.236,2.2377,2.218,2.2178,2.2176,0,2.1644,2.174,2.1824,2.1848,2.1904,2.1942,2.1967,2.2008,2.2044,2.2093,2.2117,2.2173,2.2204,2.2248,2.2259,2.2223,2.2358,2.231,2.2367,2.2367,2.2396,2.2395,2.2556,2.2416,2.2415,2.2415,2.2415,0,2.1767,2.1839,2.1863,2.1914,2.1995,2.2003,2.2083,2.2105,2.2142,2.2197,2.2188,2.224,2.2251,2.2305,2.2314,2.2394,2.2408,2.2418,2.2419,2.2419,2.2418,2.244,2.2433,2.2419,2.2419,2.2418,2.2417,0,2.1876,2.1895,2.1984,2.203,2.2043,2.2101,2.214,2.2189,2.2205,2.2275,2.2292,2.2318,2.2381,2.2397,2.2471,2.2478,2.2573,2.2567,2.2559,2.2559,2.2616,2.261,2.2797,2.2822,2.2665,2.2666,2.2668,0,2.1954,2.2009,2.2062,2.2099,2.2125,2.2184,2.2222,2.2232,2.2271,2.2327,2.2369,2.2432,2.2482,2.2584,2.2609,2.2667,2.2663,2.2724,2.2671,2.2669,2.2665,2.2662,2.2668,2.2734,2.2736,2.2737,2.2738,0,2.209,2.2097,2.2152,2.221,2.2255,2.2302,2.2346,2.2376,2.2393,2.2437,2.2503,2.2542,2.2619,2.2682,2.274,2.2765,2.2755,2.2755,2.2771,2.2772,2.2765,2.2771,2.2587,2.275,2.2749,2.2748,2.2748,2.2747,2.2186,2.2236,2.2281,2.2342,2.2377,2.2419,2.2468,2.2491,2.2546,2.2611,2.2613,2.2685,2.2728,2.2805,2.2834,2.289,2.2871,2.2895,2.2901,2.2907,2.2912,2.2756,2.29,2.29,2.29,2.2899,2.2899,0,2.2323,2.2352,2.2408,2.2471,2.252,2.2507,2.2555,2.2597,2.266,2.2702,2.2752,2.2828,2.2889,2.2919,2.298,2.3019,2.3016,2.3034,2.3032,2.3038,2.2925,2.2905,2.3036,2.3036,2.3036,2.3036,2.3036,2.3036,2.24,2.2483,2.2496,2.2596,2.2624,2.2695,2.2724,2.2762,2.2796,2.2881,2.2932,2.2952,2.299,2.3053,2.3108,2.3116,2.3139,2.316,2.3165,2.3059,2.3046,2.3032,2.3014,2.3165,2.3165,2.3274,2.3275,2.3275]}]]